Address 0xb1099823cb79030b93f2c85c5469f67ea602029d 3

 

Overview

Balance:
0.000414 BNB

BNB Value:
$0.14 (@ $334.59/BNB)

Token:
 
Txn Hash Method
Block
From
To
Value [Txn Fee]
0x63e3779330975e33a037a9d7c350d75b8d2e5639b5f3ab01a7ce513759eea624Transfer77309752021-05-26 0:41:18125 days 6 hrs ago0xb1099823cb79030b93f2c85c5469f67ea602029dOUT0x9be4ef23e8adf9ab2f3b17bf8d1ae7c11e5d05620.01809749547576 BNB0.000126
0x24e59ea4f904c0b961781ffa6199aee8cd5df8256e30823d796608153a440c9aTransfer76123272021-05-21 21:29:48129 days 9 hrs ago0xb1099823cb79030b93f2c85c5469f67ea602029dOUT ShibaCorgi: ShiCo Token0 BNB0.0006273036
0x7746fb03cfe229adf894b852f91884f1838e7adefb30e0f4c930b0fc025d68f5Transfer76122852021-05-21 21:27:40129 days 9 hrs ago0xb1099823cb79030b93f2c85c5469f67ea602029dOUT 0x63117fa9b020306e3cd29526734f405d62963c440 BNB0.0002458698
0x6191e0a226d3185ff4482da933c8d43f5e06eade8185e62beb673a0f202fab2eTransfer76121852021-05-21 21:22:30129 days 10 hrs ago0xb1099823cb79030b93f2c85c5469f67ea602029dOUT 0x90b1e2097a0267ca2ff6cb77e5817f1489614f6f0 BNB0.0002455332
0xc9e0e02e5576315b8aa457aba1e45bce7fe12b88f229eb53749fa3ff6d2e38bcTransfer76121792021-05-21 21:22:10129 days 10 hrs ago0xb1099823cb79030b93f2c85c5469f67ea602029dOUT 0x93e60119bc8497607faeffee399596b5702719de0 BNB0.0006329796
0xcc6aeb57d3d38aad67d64a6b055381f302034464bd632103eb6510b48ca1788dTransfer76121722021-05-21 21:21:47129 days 10 hrs ago0xb1099823cb79030b93f2c85c5469f67ea602029dOUT 0x1d400a062a2d7294a9f3951d60a9630433c300190 BNB0.0005827338
0x1bb6ac3017a9de20ee9b5925c15c879893479c418cc8fbff8564d99245146271Transfer76121342021-05-21 21:19:49129 days 10 hrs ago0xb1099823cb79030b93f2c85c5469f67ea602029dOUT 0x8b0cca7bafa2b57083947d36da92e9170ff0fc130 BNB0.0002484702
0x91de48000d51b4dc81a0bb5bb0764a77b63b175c37890ac86b643aeb3d9c8b4fTransfer76121202021-05-21 21:19:07129 days 10 hrs ago0xb1099823cb79030b93f2c85c5469f67ea602029dOUT 0xeb516e10660cc04c41b40f700bed77e101cd4e9b0 BNB0.0004852254
0xf241a6c5a14d9d23178589eb5534527840260728bb5b537f098bf66b46f32f5bTransfer76121082021-05-21 21:18:31129 days 10 hrs ago0xb1099823cb79030b93f2c85c5469f67ea602029dOUT 0x6a50600ea886a82f5259e16939ae88e9669cb1640 BNB0.000239844
0x98eac06823b4f310d66d061a0d353c47f1b63fb83e9b0843919054e6ba8e5c6bTransfer76120992021-05-21 21:18:04129 days 10 hrs ago0xb1099823cb79030b93f2c85c5469f67ea602029dOUT 0xefb09908f51365e5fd1e891c7c4896e5d561cf610 BNB0.0002381214
0xddc2e07e5f5dc7cbbe9be95ff9bc8f8c84b7b9cd0eba1b7e9bd93f6e1ad9a352Transfer76120852021-05-21 21:17:22129 days 10 hrs ago0xb1099823cb79030b93f2c85c5469f67ea602029dOUT 0x9a1094185bbd789ceb9df4b000ca5f18094dba0e0 BNB0.0002409528
0x90fb2607e2db30a53df0b2c35dac6b7f2235a4235a99011bb7729868b599e15fTransfer76120672021-05-21 21:16:28129 days 10 hrs ago0xb1099823cb79030b93f2c85c5469f67ea602029dOUT 0x33dacdd9d88f73bf59520d65f4f17a501ff8f0780 BNB0.0002989932
0xe6d07d79d8d017814555d415c245f5dd7d960e3357a87a98ec99eb8ed484beebTransfer76120412021-05-21 21:15:10129 days 10 hrs ago0xb1099823cb79030b93f2c85c5469f67ea602029dOUT 0x14ff2a6e0066e5d905e9fb732a281433b224f31b0 BNB0.0002385834
0x9405b73bbe1b2ff5be258dc23b631b140ffad8afc8800e817f25b26c32ab8d4dTransfer76120222021-05-21 21:14:13129 days 10 hrs ago0xb1099823cb79030b93f2c85c5469f67ea602029dOUT 0x0d5d04b004791584064addc92cc542724422844b0 BNB0.0006263994
0x4af2bf6046883074c207998579a13227c13aa4d306b98ff19fe1769c6aff6757Transfer76120052021-05-21 21:13:22129 days 10 hrs ago0xb1099823cb79030b93f2c85c5469f67ea602029dOUT 0xd720e5e8eacde437036ebaa17ea2190a43f482d10 BNB0.0002456256
0x2ba61344d979688dd10f540af444a180fc112f7af9eebf6fc33ddaedcd779983Transfer76119352021-05-21 21:09:50129 days 10 hrs ago0xb1099823cb79030b93f2c85c5469f67ea602029dOUT 0x2d2a9604f15e2190dd6536e88b0149e6e9c459c60 BNB0.0002482326
0x918258d579bdaf422502a572a957aac7b66656af5426d9d9fa126f5ddb7053e3Transfer76119302021-05-21 21:09:35129 days 10 hrs ago0xb1099823cb79030b93f2c85c5469f67ea602029dOUT 0xadbfd5738b3cb4f945885c0b904b02f23d60f8910 BNB0.0004802886
0x8b66c8512355d243e9903e224de39fef61ed5acc51ff40eaeeef771e9b054d22Transfer76119152021-05-21 21:08:50129 days 10 hrs ago0xb1099823cb79030b93f2c85c5469f67ea602029dOUT 0xc5bcda8ac874f467e475a7a1f655fc25e7fdd9c80 BNB0.0006931188
0xc58ac7cbd06bb37a73d3daedc37a4f810c5d10d3b2008f3d901720d51d5ecc48Transfer76119082021-05-21 21:08:29129 days 10 hrs ago0xb1099823cb79030b93f2c85c5469f67ea602029dOUT 0xc3b34ec890827165f2f4f7019c871d2634a40b5d0 BNB0.0003310956
0x37d1c851c9813ffacc6ac14ae6c1e16a778aa94507449579403daa8123b9c37bTransfer76118832021-05-21 21:07:14129 days 10 hrs ago0xb1099823cb79030b93f2c85c5469f67ea602029dOUT 0x9760a00dd1c325f1ed911e52b0da4721cccdbf020 BNB0.0002484702
0xaa8aaed9cc0399190a50962d9d39dee9e337723995337123334a25b697b8c1c2Transfer76118792021-05-21 21:07:02129 days 10 hrs ago0xb1099823cb79030b93f2c85c5469f67ea602029dOUT Spacetitan: SPACETITAN Token0 BNB0.0006931188
0x74b9dfc92229994ffa660ef986a9417d7ddb09ad4dfd9bed8927d4f19bd11be7Transfer76118712021-05-21 21:06:38129 days 10 hrs ago0xb1099823cb79030b93f2c85c5469f67ea602029dOUT 0x78fff5165507e44985dc7a6ed17776408cd088020 BNB0.0006810672
0x9cbf1f77d14b1f24519cca33e72483efd7b6363d56113713c8253a85f02d10afTransfer76118612021-05-21 21:06:08129 days 10 hrs ago0xb1099823cb79030b93f2c85c5469f67ea602029dOUT 0x72bc9d2c23a6db49e9dc8be992cba9f359c97c7f0 BNB0.0002383656
0x6ab67b20acf12d9b0030af39871293e3e835d3753dc30d1902fa53c3972ac6dfTransfer76118532021-05-21 21:05:44129 days 10 hrs ago0xb1099823cb79030b93f2c85c5469f67ea602029dOUT0x3a5f6f2f143154ea739bdfac7b0399ff326c86b52.6 BNB0.000126
0xcb0c2b2c63cf9cd343a218e1f25ba59947297667e4603762ee92701fc36724dfTransfer76118472021-05-21 21:05:26129 days 10 hrs ago0xb1099823cb79030b93f2c85c5469f67ea602029dOUT 0x40dff8087f4625b73949680e858e996e90d772d50 BNB0.0006181362
[ Download CSV Export 
Latest 25 internal transaction
Parent Txn Hash Block From To Value
0x6b49981313bd413194b12cff9045bfc7d91675c63dbc598e46b5ee685b11b70376111362021-05-21 20:29:51129 days 10 hrs ago PancakeSwap: Router v20xb1099823cb79030b93f2c85c5469f67ea602029d34.728789623989365366 BNB
0x8f215f76b3adc633a82a8661f8d61676fd09b07edc82200439172fb5461a3db276107392021-05-21 20:09:59129 days 11 hrs ago PancakeSwap: Router v20xb1099823cb79030b93f2c85c5469f67ea602029d120.484969984504409223 BNB
0x420b7fd068c65b338aedc0fd87351ec2aee14727d534d29b7bf21a8fb573686276102272021-05-21 19:44:23129 days 11 hrs ago PancakeSwap: Router v20xb1099823cb79030b93f2c85c5469f67ea602029d160.013990214165060577 BNB
0xb20da5c648a21fd36ec0470184460496d8cb3a4f095d420780943649b9a18f6b74944242021-05-17 18:04:58133 days 13 hrs ago PancakeSwap: Router0xb1099823cb79030b93f2c85c5469f67ea602029d2.460339565863353073 BNB
0xa2fc2ffd3baae9ce6c3c81607de9419a9c8bcbb916387d384c43b8a20cd7573774940122021-05-17 17:44:22133 days 13 hrs ago PancakeSwap: Router0xb1099823cb79030b93f2c85c5469f67ea602029d3.708696799823121367 BNB
0xce55ee8b2d8a43b27ccd06eb16f36c512be4bc643115afc9069a3bb71d809b0a74939132021-05-17 17:39:25133 days 13 hrs ago PancakeSwap: Router0xb1099823cb79030b93f2c85c5469f67ea602029d4.256896824825156196 BNB
0x0c1066a69300df4ce51782461ad1e3dc413452d8361429152975955aa18423b574774992021-05-17 3:48:11134 days 3 hrs ago PancakeSwap: Router0xb1099823cb79030b93f2c85c5469f67ea602029d9.980809563643955348 BNB
0x4f5a39baffb8d4eead72be845974709033f4ebc4b1ba599423da1060acb965b074774242021-05-17 3:44:26134 days 3 hrs ago PancakeSwap: Router0xb1099823cb79030b93f2c85c5469f67ea602029d2.858376163136281878 BNB
0xc9d26995bb2da877d72019c73b317e17355d8763cf2d73c708073064f526d43c73030982021-05-10 18:53:30140 days 12 hrs ago PancakeSwap: Router0xb1099823cb79030b93f2c85c5469f67ea602029d1.782089123485201026 BNB
0xc49045bc1348394e2a8de29fdd2653bfff5bf31bf7068888ac58f9ad31e24acd73030502021-05-10 18:49:58140 days 12 hrs ago PancakeSwap: Router0xb1099823cb79030b93f2c85c5469f67ea602029d1.785748478520019658 BNB
0x5ba1a5336baf143273ce54dd2f4da8d89a7c70a9d8ee193c41c5307991aac50e72898542021-05-10 6:03:45141 days 1 hr ago PancakeSwap: Router0xb1099823cb79030b93f2c85c5469f67ea602029d1.71406074337306193 BNB
0x297e3e2637bd871f5ce5c2bcc7214d2280dcf5023b0b0f44d96887666162b19272181472021-05-07 16:04:34143 days 15 hrs ago PancakeSwap: Router0xb1099823cb79030b93f2c85c5469f67ea602029d2.014409216497257986 BNB
0xe6149cce17103be5b39c3b4815039eed74c29839843cd5032169154442ada7f571489052021-05-05 4:54:43146 days 2 hrs ago PancakeSwap: Router0xb1099823cb79030b93f2c85c5469f67ea602029d0.946455044899334556 BNB
0xb9108b7d4dbc3c214e49edaca46e3956fa3a18f939b996311ba86f126ac65d1c71486882021-05-05 4:43:52146 days 2 hrs ago PancakeSwap: Router0xb1099823cb79030b93f2c85c5469f67ea602029d0.948227705027266582 BNB
0x39a63c34b592b0072b45a4d0800e69dd90bc0f3168d04434bb21bf6ce547e3e071485142021-05-05 4:35:10146 days 2 hrs ago PancakeSwap: Router0xb1099823cb79030b93f2c85c5469f67ea602029d0.948951116895322937 BNB
0x916eed22bfe430a1d7027c8bed19b3affbb4194c74de449b28a48bb4fdf1893471484272021-05-05 4:30:49146 days 2 hrs ago PancakeSwap: Router0xb1099823cb79030b93f2c85c5469f67ea602029d0.949324789040724801 BNB
0xfd89f9dedf73fbe091eac6e468a397af438109f34fe2b6637644661dec38924371483522021-05-05 4:27:04146 days 3 hrs ago PancakeSwap: Router0xb1099823cb79030b93f2c85c5469f67ea602029d0.949728158589114833 BNB
0xd7ca38c710cabc281cbcfa480361423b6451c86c599d048792fccfe4a3a6b16b71482432021-05-05 4:21:37146 days 3 hrs ago PancakeSwap: Router v20xb1099823cb79030b93f2c85c5469f67ea602029d1.332328906197678501 BNB
0xbc29ecc7693ca4222dfc6250e14d85e801a9b2261107de026b123f8887af03e569630962021-04-28 16:22:52152 days 15 hrs ago PancakeSwap: Router0xb1099823cb79030b93f2c85c5469f67ea602029d3.337130605368164746 BNB
0xbdffc78dc9aace165e666374ebae03f07bddef83c436b26f6594b5a36595cc5a69507242021-04-28 6:01:44153 days 1 hr ago PancakeSwap: Router0xb1099823cb79030b93f2c85c5469f67ea602029d0.327296684806633252 BNB
0x18821854eca46fd64be7dabe83a0bfd1c194a51a12cfbc96361186f7339643c669419362021-04-27 22:41:44153 days 8 hrs ago PancakeSwap: Router v20xb1099823cb79030b93f2c85c5469f67ea602029d0.060047704430751839 BNB
0xba8c30381a633a881b3d7569301f6814a44cacc74fa0570a2b9a21c1e3726f9969419212021-04-27 22:40:59153 days 8 hrs ago PancakeSwap: Router v20xb1099823cb79030b93f2c85c5469f67ea602029d0.262130813214489952 BNB
0x842d26b91fab1828f4ab6184052a289498ab3b8042f64a230bcfc3d80ad6645169418902021-04-27 22:39:26153 days 8 hrs ago PancakeSwap: Router0xb1099823cb79030b93f2c85c5469f67ea602029d4.873956606759147609 BNB
0xd0f3ea46eeb659f5722cc31f7d0f44d44413c4bc025fdd8823dc2b7bd2d21c9769167592021-04-27 1:28:20154 days 5 hrs ago PancakeSwap: Router0xb1099823cb79030b93f2c85c5469f67ea602029d0.196614727545786626 BNB
0x7be92f229217d5bd185c402ade92eb09fa6cf15fc1cf498f93142b4673f97cbd68638292021-04-25 5:06:31156 days 2 hrs ago PancakeSwap: Router0xb1099823cb79030b93f2c85c5469f67ea602029d23.851782552432946413 BNB
[ Download CSV Export 
Loading

Contract Name:
0 BNB

Compiler Version
0

Optimization Enabled:
0 BNB

Other Settings:
-NA-
Block Transaction Gas Used Reward
Age Block Fee Address BC Fee Address Voting Power Jailed Incoming
Block Uncle Number Difficulty Gas Used Reward
Loading
Loading
Make sure to use the "Vote Down" button for any spammy posts, and the "Vote Up" for interesting conversations.